Location: Izdebno
(52.6670°N, 16.2170°E)
Time: 14:04:20
(UTC+02:00)

A-11 Canister half - Pass Details

Date: 25 February 2024
Orbit: 1525 x 1683 km, 47.3° (Epoch: 24 April)

Event Time Altitude Azimuth Distance (km) Brightness Sun altitude
Rises 21:21:07 0° 232° (SW) 4,755 11.8 -34.9°
Reaches altitude 10° 21:24:19 10° 228° (SW) 3,753 11.1 -35.2°
Enters shadow 21:28:59 31° 211° (SSW) 2,462 9.9 -35.8°
